Torna al catalogo

STARLINK-31509

AttivoComunicazioniVLEO
NORAD 59533·PAYLOAD·🇺🇸 United States

Lanciato Apr 17, 2024 da Cape Canaveral Space Force Station

Loading…

Prossimi Passaggi (prossime 24 ore)

TLE

AggiornatoSource: CelesTrak SupGP

Epoca: Sep 15, 2026, 03:08 UTC

1 59533C 24073Y   26258.13104167  .00049437  00000+0  17903-2 0  2583
2 59533  43.0035 328.5489 0001650 266.4249  96.9277 15.27559272    12

Traccia STARLINK-31509 in tempo reale con AllMySat

Download on the App Store